Lakeview AWS, OR

10:15 PM PST on February 20, 2018 (GMT -0800)
Lake County

Weather History for KLKV - August, 2013

Change the Weather History Date:

Thursday, August 8, 2013

  Actual Average Record
Temperature  
Mean Temperature 56 °F -  
Max Temperature 73 °F 87 °F 101 °F (1981)
Min Temperature 39 °F 50 °F 34 °F (1976)
Degree Days  
Heating Degree Days 9    
Growing Degree Days 6 (Base 50)    
Moisture  
Dew Point 44 °F    
Average Humidity 67    
Maximum Humidity 93    
Minimum Humidity 31    
Precipitation  
Precipitation 0.00 in - - ()
Sea Level Pressure  
Sea Level Pressure 30.11 in    
Wind  
Wind Speed 6 mph (NNW)    
Max Wind Speed 15 mph    
Max Gust Speed 23 mph    
Visibility 10 miles    
Events Thunderstorm    
Averages and records for this station are not official NWS values.
T = Trace of Precipitation, MM = Missing Value Source: NWS Daily Summary

Daily Weather History Graph

Daily Weather History Graph

Search for Another Location

Airport or City:

Trip Planner

Search our weather history database for the weather conditions in past years. The results will help you decide how hot, cold, wet, or windy it might be!

Date:

Astronomy

Aug. 08, 2013 Rise Set
Actual Time 6:02 AM PDT 8:11 PM PDT
Civil Twilight 5:31 AM PDT 8:42 PM PDT
Nautical Twilight 4:53 AM PDT 9:20 PM PDT
Astronomical Twilight 4:11 AM PDT 10:01 PM PDT
Moon 7:57 AM PDT (8/8) 8:48 PM PDT (8/8)
Length of Visible Light 15h 10m
Length of Day
14h 09m
Waxing Crescent, 3% of the Moon is Illuminated
Aug 8
Waxing Crescent
Aug 14
First Quarter
Aug 20
Full
Aug 28
Last Quarter
Sep 5
New

Hourly Weather History & Observations

Time (PDT) Temp. Windchill Dew Point Humidity Pressure Visibility Wind Dir Wind Speed Gust Speed Precip Events Conditions
12:15 AM 51.8 °F - 42.8 °F 71% 30.14 in 10.0 mi NE 5.8 mph - N/A   Clear
12:35 AM 51.8 °F - 42.8 °F 71% 30.14 in 10.0 mi NE 5.8 mph - N/A   Clear
12:55 AM 50.0 °F - 42.8 °F 76% 30.14 in 10.0 mi Calm Calm - N/A   Clear
1:15 AM 46.4 °F 42.9 °F 39.2 °F 76% 30.14 in 10.0 mi NNW 6.9 mph - N/A   Clear
1:35 AM 46.4 °F 42.4 °F 39.2 °F 76% - 10.0 mi North 8.1 mph - N/A   Clear
1:55 AM 48.2 °F - 42.8 °F 82% - 10.0 mi North 8.1 mph - N/A   Clear
2:15 AM 46.4 °F 42.4 °F 39.2 °F 76% - 10.0 mi NNW 8.1 mph - N/A   Clear
2:35 AM 46.4 °F 42.4 °F 39.2 °F 76% 30.12 in 10.0 mi North 8.1 mph - N/A   Clear
2:55 AM 44.6 °F 40.7 °F 39.2 °F 81% 30.11 in 10.0 mi NNW 6.9 mph - N/A   Clear
3:15 AM 44.6 °F 42.2 °F 39.2 °F 81% 30.12 in 10.0 mi North 4.6 mph - N/A   Clear
3:35 AM 44.6 °F - 39.2 °F 81% 30.12 in 10.0 mi Calm Calm - N/A   Clear
3:55 AM 44.6 °F - 39.2 °F 81% 30.12 in 10.0 mi Calm Calm - N/A   Clear
4:15 AM 42.8 °F - 37.4 °F 81% 30.12 in 10.0 mi Calm Calm - N/A   Clear
4:35 AM 41.0 °F - 35.6 °F 81% 30.12 in 10.0 mi Calm Calm - N/A   Clear
4:55 AM 39.2 °F 35.9 °F 35.6 °F 87% 30.12 in 10.0 mi NNW 4.6 mph - N/A   Clear
5:15 AM 39.2 °F 35.9 °F 35.6 °F 87% 30.12 in 10.0 mi North 4.6 mph - N/A   Clear
5:35 AM 41.0 °F 37.1 °F 35.6 °F 81% 30.12 in 10.0 mi NNW 5.8 mph - N/A   Clear
5:55 AM 41.0 °F 39.0 °F 35.6 °F 81% 30.13 in 10.0 mi North 3.5 mph - N/A   Clear
6:15 AM 41.0 °F 36.4 °F 37.4 °F 87% 30.13 in 10.0 mi NNW 6.9 mph - N/A   Clear
6:35 AM 42.8 °F 41.1 °F 39.2 °F 87% 30.14 in 10.0 mi NNE 3.5 mph - N/A   Scattered Clouds
6:55 AM 44.6 °F 41.4 °F 39.2 °F 81% 30.14 in 10.0 mi NW 5.8 mph - N/A   Mostly Cloudy
7:15 AM 46.4 °F 44.3 °F 41.0 °F 81% 30.14 in 10.0 mi NNW 4.6 mph - N/A   Mostly Cloudy
7:35 AM 46.4 °F 45.2 °F 41.0 °F 81% 30.15 in 10.0 mi NNW 3.5 mph - N/A   Overcast
7:55 AM 48.2 °F - 42.8 °F 82% 30.14 in 10.0 mi North 5.8 mph - N/A   Overcast
8:15 AM 51.8 °F - 44.6 °F 76% 30.14 in 10.0 mi North 5.8 mph - N/A   Overcast
8:35 AM 55.4 °F - 46.4 °F 72% 30.13 in 10.0 mi NNW 9.2 mph - N/A   Scattered Clouds
8:55 AM 59.0 °F - 44.6 °F 59% 30.12 in 10.0 mi NW 8.1 mph - N/A   Scattered Clouds
9:55 AM - - - N/A% - - Calm Calm - N/A   Unknown
10:55 AM - - - N/A% - - North - - N/A   Unknown
11:15 AM 71.6 °F - 42.8 °F 35% 30.08 in 10.0 mi WSW 3.5 mph - N/A   Mostly Cloudy
11:35 AM 71.6 °F - 44.6 °F 38% 30.09 in 10.0 mi North 9.2 mph 16.1 mph N/A   Overcast
11:55 AM 69.8 °F - 44.6 °F 40% 30.09 in 10.0 mi NNW 11.5 mph - N/A   Mostly Cloudy
12:15 PM 69.8 °F - 44.6 °F 40% 30.10 in 10.0 mi NW 12.7 mph - N/A   Overcast
12:35 PM 68.0 °F - 44.6 °F 43% 30.11 in 10.0 mi WNW 10.4 mph - N/A   Overcast
12:55 PM 68.0 °F - 44.6 °F 43% 30.12 in 10.0 mi North 10.4 mph - N/A   Overcast
1:15 PM 69.8 °F - 46.4 °F 43% 30.12 in 10.0 mi NW 11.5 mph - N/A   Overcast
1:35 PM 69.8 °F - 44.6 °F 40% 30.12 in 10.0 mi NW 6.9 mph - N/A   Mostly Cloudy
1:55 PM 73.4 °F - 41.0 °F 31% 30.13 in 10.0 mi WSW 8.1 mph 16.1 mph N/A   Mostly Cloudy
2:15 PM 71.6 °F - 42.8 °F 35% 30.13 in 10.0 mi West 10.4 mph - N/A   Mostly Cloudy
2:35 PM 69.8 °F - 41.0 °F 35% 30.11 in 10.0 mi WNW 10.4 mph - N/A   Mostly Cloudy
2:55 PM 69.8 °F - 42.8 °F 38% 30.11 in 10.0 mi NW 9.2 mph - N/A   Overcast
3:15 PM 69.8 °F - 46.4 °F 43% 30.10 in 10.0 mi NNW 10.4 mph - N/A   Mostly Cloudy
3:35 PM 69.8 °F - 44.6 °F 40% 30.09 in 10.0 mi North 11.5 mph - N/A   Scattered Clouds
3:55 PM 69.8 °F - 42.8 °F 38% 30.09 in 10.0 mi North 9.2 mph - N/A   Mostly Cloudy
4:15 PM 69.8 °F - 44.6 °F 40% 30.09 in 10.0 mi North 5.8 mph - N/A   Overcast
4:35 PM 69.8 °F - 42.8 °F 38% 30.10 in 10.0 mi SSW 8.1 mph - N/A   Overcast
4:55 PM 68.0 °F - 44.6 °F 43% 30.11 in 10.0 mi SW 11.5 mph - N/A   Overcast
5:15 PM 66.2 °F - 41.0 °F 40% 30.12 in 10.0 mi WSW 9.2 mph - N/A   Overcast
5:35 PM 64.4 °F - 46.4 °F 52% 30.12 in 10.0 mi NW 4.6 mph - N/A   Overcast
5:55 PM 62.6 °F - 46.4 °F 55% 30.13 in 10.0 mi Calm Calm - N/A   Overcast
6:15 PM 60.8 °F - 51.8 °F 72% 30.12 in 10.0 mi North 4.6 mph - N/A   Overcast
6:35 PM 57.2 °F - 51.8 °F 82% 30.12 in 10.0 mi North 3.5 mph - N/A   Overcast
6:55 PM 57.2 °F - 51.8 °F 82% 30.09 in 10.0 mi North 9.2 mph - N/A   Overcast
7:15 PM 57.2 °F - 51.8 °F 82% 30.10 in 10.0 mi NW 5.8 mph - N/A   Scattered Clouds
7:35 PM 55.4 °F - 51.8 °F 88% 30.10 in 10.0 mi NW 8.1 mph - N/A   Scattered Clouds
7:55 PM 55.4 °F - 51.8 °F 88% 30.11 in 10.0 mi NNE 4.6 mph - N/A Thunderstorm Mostly Cloudy
8:15 PM 55.4 °F - 51.8 °F 88% 30.11 in 10.0 mi East 9.2 mph - N/A   Overcast
8:35 PM 55.4 °F - 50.0 °F 82% 30.12 in 10.0 mi ENE 8.1 mph - N/A   Overcast
8:55 PM 55.4 °F - 50.0 °F 82% 30.10 in 10.0 mi NE 15.0 mph - N/A   Overcast
9:15 PM 55.4 °F - 48.2 °F 77% 30.06 in 10.0 mi East 4.6 mph 23.0 mph N/A   Mostly Cloudy
9:35 PM 55.4 °F - 48.2 °F 77% 30.04 in 10.0 mi NE 10.4 mph 19.6 mph N/A   Partly Cloudy
9:55 PM 57.2 °F - 46.4 °F 67% 30.08 in 10.0 mi Calm Calm - N/A   Clear
10:15 PM 57.2 °F - 46.4 °F 67% 30.08 in 10.0 mi NNW 5.8 mph - N/A   Clear
10:35 PM 57.2 °F - 46.4 °F 67% 30.08 in 10.0 mi NNE 6.9 mph - N/A   Clear
10:55 PM 55.4 °F - 46.4 °F 72% 30.07 in 10.0 mi NNE 5.8 mph - N/A   Clear
11:15 PM 53.6 °F - 46.4 °F 77% 30.08 in 10.0 mi West 6.9 mph - N/A   Clear
11:35 PM 50.0 °F - 46.4 °F 87% 30.08 in 10.0 mi Calm Calm - N/A   Clear
11:55 PM 48.2 °F - 46.4 °F 93% 30.09 in 10.0 mi NNW 5.8 mph - N/A   Clear